Regional Weather Roundup
Issued by NWS

Home | Current Version | Previous Version | Text Only | Print | Product List | Glossary On
Versions: 1 2 3 4 5 6 7 8 9 10 11 12 13 14 15 16 17 18 19 20 21 22 23 24 25 26 27
000
ASUS45 KCYS 191210
RWRWY

WYOMING REGIONAL WEATHER ROUNDUP
NATIONAL WEATHER SERVICE CHEYENNE WY
500 AM MST SUN NOV 19 2017

NOTE:  "FAIR" INDICATES FEW OR NO CLOUDS BELOW 12,000 FEET
WITH NO SIGNIFICANT WEATHER AND/OR OBSTRUCTIONS TO VISIBILITY.

WYZ001-191300-
YELLOWSTONE NATIONAL PARK

CITY           SKY/WX    TMP DP  RH WIND       PRES   REMARKS
LK YELLOWSTONE   N/A     16  14  92 CALM      30.22F
6HR MIN TEMP:  15; 6HR MAX TEMP:  17;

W YELLOWSTONE  NOT AVBL

$$
WYZ002>013-054>058-071-098>099-191300-
NORTHERN WYOMING

CITY           SKY/WX    TMP DP  RH WIND       PRES   REMARKS
JACKSON        CLOUDY    10   7  87 CALM        N/A
CODY           FAIR      39   7  26 S12G23    30.04F WCI  32
GREYBULL       FAIR      19  16  88 SE5       30.09F WCI  12
6HR MIN TEMP:  17; 6HR MAX TEMP:  25;

WORLAND        FAIR      18  15  88 SW6       30.08F WCI  10
6HR MIN TEMP:  14; 6HR MAX TEMP:  23;

SHERIDAN       FAIR      20  16  84 CALM      29.97F
6HR MIN TEMP:  19; 6HR MAX TEMP:  24;

BUFFALO        FAIR      32  13  45 SW12      29.98F WCI  23
6HR MIN TEMP:  22; 6HR MAX TEMP:  36;

GILLETTE       FAIR      34  16  47 SW21      30.00F WCI  22
6HR MIN TEMP:  31; 6HR MAX TEMP:  35;

HULETT         FAIR      32  18  55 SW12      30.01S WCI  23
NEWCASTLE      FAIR      21  14  73 S6        30.07F WCI  14

$$
WYZ014>020-022>026-101>103-191300-
CENTRAL WYOMING

CITY           SKY/WX    TMP DP  RH WIND       PRES   REMARKS
BIG PINEY      FAIR       3   0  87 E6        30.27F WCI  -8
6HR MIN TEMP:   3; 6HR MAX TEMP:   6;

PINEDALE       FAIR       7   3  85 NW5       30.27S WCI  -2
DUBOIS         FAIR      27   7  43 NW20G26   30.10F WCI  13
LANDER         FAIR      22  13  68 CALM      30.10F
6HR MIN TEMP:  17; 6HR MAX TEMP:  28;

RIVERTON       FAIR      20  14  77 N3        30.12F
6HR MIN TEMP:  17; 6HR MAX TEMP:  25;

CASPER         FAIR      29  15  56 SW25G35   30.09F WCI  14
6HR MIN TEMP:  28; 6HR MAX TEMP:  30;

DOUGLAS        FAIR      26  17  68 N9        30.08F WCI  17
6HR MIN TEMP:  19; 6HR MAX TEMP:  27;


$$
WYZ021-027>030-104>119-191300-
SOUTHERN WYOMING

CITY           SKY/WX    TMP DP  RH WIND       PRES   REMARKS
EVANSTON       FAIR      18  14  84 S5        30.24F WCI  11
6HR MIN TEMP:  12; 6HR MAX TEMP:  20;

FORT BRIDGER   FAIR      16  11  78 CALM      30.28S
ROCK SPRINGS   FAIR      14   8  77 SW3       30.25S
6HR MIN TEMP:  11; 6HR MAX TEMP:  19;

DIXON          FAIR      14   7  74 E3        30.33S
RAWLINS        FAIR      27  11  51 CALM      30.22F
6HR MIN TEMP:  19; 6HR MAX TEMP:  28;

SARATOGA       FAIR      21   9  58 S13       30.24F WCI   9
LARAMIE        FAIR      21   9  59 VRB6      30.16F WCI  13
6HR MIN TEMP:  17; 6HR MAX TEMP:  27;

CHEYENNE       FAIR      32  11  41 W7        30.13F WCI  26
6HR MIN TEMP:  28; 6HR MAX TEMP:  35;

TORRINGTON     FAIR      19  14  81 CALM      30.10F
6HR MIN TEMP:  18; 6HR MAX TEMP:  30;

PINE BLUFFS    FAIR      21  14  73 SW6       30.15F WCI  14

$$




USA.gov is the U.S. government's official web portal to all federal, state and local government web resources and services.